PHASE 3B (AO-10)

Last updated on Mon Sep 21 2026 00:03:14 GMT+0000 (Coordinated Universal Time)

1 14129U 83058B 26263.04235857 -.00000060 00000+0 00000+0 0 9999 2 14129 25.9788 204.0605 5980330 141.6651 281.5604 2.05869937297448
UTC large
Height (km)
Speed (km/s)
/
Latitude / Longitude
Inclination (degrees)
Orbital Period (minutes)
Azimuth
Elevation
Range (km)
Doppler Factor

Next 0 passes for location: London (51.5072 / 0.1276)

No passes found over London.
PHASE 3B (AO-10)